sat.trackr.live / text

‹ back to catalog

STARLINK-3227

NORAD 49765 · 2021-115AT

PAYLOAD ACTIVE UNKNOWN

§ Identity

Operator
Country
US
Launch date
2021-12-02
Launch site
AFETR
Launch vehicle
Mass (kg)
RCS (m²)

Purposes: comms

External: N2YO · Heavens-Above · Gunter

§ Orbital elements

Epoch: 2026-09-19T22:20:56.265792Z

Period
94.01 min
Inclination
53.1617°
Eccentricity
0.0001081
Mean motion
15.31703116 rev/d
Perigee alt
470.0 km
Apogee alt
471.5 km
Semi-major
6,848.9 km
B*
4.3054e-5
RAAN
331.8656°
Arg perigee
85.0072°
Mean anomaly
275.1053°
Rev number
26,521

§ Raw data

STARLINK-32271 49765U 21115AT  26262.93120678  .00000971  00000+0  43054-4 0  99912 49765  53.1617 331.8656 0001081  85.0072 275.1053 15.31703116265217

JSON: /api/v1/satellites/49765 · /tle

For live sub-satellite position, see the globe view (requires WebGL).

§ Visibility from observer

Set your observer location to see the next 7 days of passes ≥ 10°. The values pass through the URL so the page stays shareable.

No JS? Fill the form by hand. The geolocation button needs JavaScript.